Regional Weather Roundup
Issued by NWS

Home | Current Version | Previous Version | Text Only | Print | Product List | Glossary Off
Versions: 1 2 3 4 5 6 7 8 9 10 11 12 13 14 15 16 17 18 19 20 21 22 23 24 25 26 27 28 29 30 31 32 33 34 35 36 37 38 39 40 41 42 43 44 45 46 47 48 49 50

000
ASUS43 KDMX 240106
RWRIA

WEATHER ROUNDUP FOR IOWA
NATIONAL WEATHER SERVICE DES MOINES IA
800 PM CDT TUE MAY 23 2017

NOTE: "FAIR" INDICATES FEW OR NO CLOUDS BELOW 12,000 FEET WITH NO
SIGNIFICANT WEATHER AND/OR OBSTRUCTIONS TO VISIBILITY.

* - THESE STATIONS ARE NOT NWS STATIONS...THUS NOT UNDER NWS
QUALITY CONTROL.  THEY ALSO DO NOT REPORT WEATHER SUCH
AS PRECIPITATION OR FOG.

IAZ001>003-012>014-020>022-031>034-043>046-240200-
   NORTHWEST IOWA

CITY           SKY/WX    TMP DP  RH WIND       PRES   REMARKS
CARROLL *      CLOUDY    55  48  76 N9        29.79R
CHEROKEE *     MOCLDY    50  47  90 N6        29.82R
DENISON *      PTCLDY    54  45  71 N10       29.82S
LE MARS *      MOCLDY    55  48  76 N10G18    29.84S
ORANGE CITY *  PTCLDY    52  46  82 N9        29.84R
SHELDON *      MOCLDY    52  48  87 NW10        N/A
SIOUX CITY     CLOUDY    53  50  89 N12       29.84S
SPENCER        CLOUDY    55  47  74 NE12      29.81S
STORM LAKE *   LGT RAIN  50  46  87 N9        29.81R
$$

IAZ055>058-069>071-079>083-090>094-240200-
   SOUTHWEST IOWA

CITY           SKY/WX    TMP DP  RH WIND       PRES   REMARKS
ATLANTIC *     PTCLDY    52  48  87 NW7       29.80S
AUDUBON *      MOCLDY    54  48  82 NW5       29.80R
CLARINDA *     CLOUDY    55  46  71 NW16      29.83R
COUNCIL BLFS * CLOUDY    52  52 100 NW5       29.83S
CRESTON *      PTCLDY    54  46  76 NW14G21   29.79F
HARLAN  *      PTCLDY    52  50  93 NW13G18   29.84S
LAMONI         MOCLDY    55  47  74 NW12      29.77S
RED OAK *      MOCLDY    55  45  67 NW10      29.81F
SHENANDOAH *   CLOUDY    52  48  87 NW7G13    29.83S
$$

IAZ047>049-059>061-072>074-084-240200-
   CENTRAL IOWA

CITY           SKY/WX    TMP DP  RH WIND       PRES   REMARKS
AMES           PTCLDY    54  47  77 N9        29.76R
ANKENY *       CLEAR     55  43  62 NW8G15    29.76S
BOONE *        MOCLDY    52  48  87 N12       29.76R
CHARITON *     PTCLDY    54  50  87 NW5       29.76S
DES MOINES     CLOUDY    55  46  71 W6        29.76R
GRINNELL*      CLOUDY    52  49  87 W5        29.76S
KNOXVILLE *    MOCLDY    55  46  71 W8        29.74S
MARSHALLTOWN   CLOUDY    54  48  80 N12       29.74R
NEWTON *       CLOUDY    55  45  67 N5        29.74S
PELLA *        PTCLDY    56  44  63 NW7       29.75S
PERRY *        MOCLDY    55  48  77 NW9       29.77S
$$

IAZ004>006-015-016-023>025-035-036-240200-
   NORTH CENTRAL IOWA

CITY           SKY/WX    TMP DP  RH WIND       PRES   REMARKS
ALGONA *       DRIZZLE   52  48  87 N9G17     29.80R
CLARION *      MOCLDY    54  50  87 N10       29.77S
ESTHERVILLE    CLOUDY    52  49  89 N13       29.80S
FORT DODGE *   PTCLDY    54  46  76 N6        29.79R
MASON CITY     LGT RAIN  50  48  93 N12       29.78R FOG
FOREST CITY *  RAIN      50  45  81 N10       29.78R
WEBSTER CITY * CLOUDY    52  48  87 N9        29.75S
IOWA FALLS *   CLOUDY    54  47  79 N5        29.76S
$$

IAZ007>011-017>019-026>030-037>042-050>054-066-240200-
   NORTHEAST IOWA

CITY           SKY/WX    TMP DP  RH WIND       PRES   REMARKS
CEDAR RAPIDS   CLOUDY    56  51  84 N5        29.71F
CHARLES CITY * CLOUDY    54  52  94 N13       29.74S
CLINTON *      CLOUDY    55  52  89 N7        29.71S
DECORAH *      CLOUDY    54  50  87 N9        29.72R
DUBUQUE        CLOUDY    56  50  80 NW10      29.70S
MONTICELLO *   CLOUDY    59  46  63 NW8G15    29.70F
OELWEIN *      CLOUDY    54  50  87 NW8       29.73S
WATERLOO       PTCLDY    54  46  74 NW8       29.72S
$$

IAZ064-065-067-068-078-240200-
   EAST CENTRAL IOWA

CITY           SKY/WX    TMP DP  RH WIND       PRES   REMARKS
DAVENPORT      CLOUDY    57  51  80 NW10      29.71S
IOWA CITY      CLOUDY    58  48  69 NW5       29.73S
MT. PLEASANT * PTCLDY    57  46  65 W7        29.73S
MUSCATINE *    CLOUDY    57  48  72 NW7       29.72S
QUAD CITIES    PTCLDY    58  50  75 W3        29.70S
$$

IAZ062-063-075>077-085>089-095>099-240200-
   SOUTHEAST IOWA

CITY           SKY/WX    TMP DP  RH WIND       PRES   REMARKS
BURLINGTON     CLOUDY    59  49  69 NW8       29.71S
FAIRFIELD *    CLOUDY    57  46  67 NW7       29.73S
FORT MADISON * CLOUDY    57  52  82 NW8       29.73S
KEOKUK *       CLOUDY    59  48  67 NW10G17   29.72S
OSKALOOSA *    CLOUDY    57  45  63 NW8       29.74S
CENTERVILLE *  LGT RAIN  52  48  87 CALM      29.77F
OTTUMWA        CLOUDY    56  48  74 NW6       29.73F
WASHINGTON *   CLOUDY    55  48  76 NW5       29.73S
$$

ABBREVIATIONS USED IN REMARKS
   TC - TEMPERATURES IN CELSIUS
  WCI - WIND CHILL INDEX
   HX - HEAT INDEX
  VSB - VISIBILITY
$$





USA.gov is the U.S. government's official web portal to all federal, state and local government web resources and services.